User: anonymous   Login
Location: Brno
(49.2000°N, 16.6330°E)
Time: 05:00:17
(UTC+01:00)
Language:

BREEZE M DEB (TANK) - Orbit

View from above orbital plane
View from above orbital plane
View from above satellite
View from above satellite

Ground track
Ground track

The orbit data is extracted from the following two-line orbital elements,

1 28359U 04022B   17328.39262179 +.00003111 +00000-0 +44819-3 0  9990
2 28359 049.5014 246.9093 4656735 004.4553 358.5845 06.20677457295246
Epoch (UTC): 24 November 2017 09:25:22
Eccentricity: 0.4656735
inclination: 49.5014°
perigee height: 305 km
apogee height: 11953 km
right ascension of ascending node: 246.9093°
argument of perigee: 4.4553°
revolutions per day: 6.20677457
mean anomaly at epoch: 358.5845°
orbit number at epoch: 29524

The dashed part of the orbit path shows where the satellite is in the earth's shadow,  

DLR